Tracking 29892 objects as of 21-Nov-2024
HD Live streaming from Space Station
objects crossing your sky now

SL-12 R/B(2)

Track SL-12 R/B(2) now!


NORAD ID: 15963
Int'l Code: 1985-070F
Perigee: 36,447.1 km
Apogee: 36,553.7 km
Inclination: 11.7 °
Period: 1,472.4 minutes
Semi major axis: 42871 km
RCS: 2.8193 m2 (large)
Launch date: August 8, 1985
Source: Commonwealth of Independent States (former USSR) (CIS)
Launch site: TYURATAM MISSILE AND SPACE COMPLEX (TTMTR)

Note: This is a ROCKET BODY
Your satellite tracking list
Your tracking list is empty




NASA's NSSDC Master Catalog

Two Line Element Set (TLE):
1 15963U 85070F   24325.52190633 -.00000039  00000-0  00000-0 0  9992
2 15963  11.7389 324.8228 0012430 176.1325 168.4552  0.97802716113960
Source of the keplerian elements: AFSPC